Weather Service Report


258 
ASUS41 KBTV 130110
RWRBTV
VERMONT REGIONAL WEATHER ROUNDUP
NATIONAL WEATHER SERVICE BURLINGTON VT
800 PM EST FRI FEB 12 2016

NOTE: "FAIR" INDICATES FEW OR NO CLOUDS BELOW 12,000 FEET WITH NO 
SIGNIFICANT WEATHER AND/OR OBSTRUCTIONS TO VISIBILITY.

* THESE REPORTS ARE NOT UNDER NWS QUALITY CONTROL AND/OR DO NOT
  REPORT WEATHER SUCH AS PRECIPITATION AND FOG.

VTZ001>019-130200-
_____VERMONT_____

  
CITY           SKY/WX    TMP DP  RH WIND       PRES   REMARKS
BURLINGTON     FAIR      19   3  49 S14       29.83F WCI   6          
MONTPELIER     FAIR      11   0  61 S5        29.85F WCI   3          
MORRISVILLE    FAIR      16   2  54 S6        29.83F WCI   7          
ST. JOHNSBURY*   N/A     12   1  61 MISG      29.85F                  
LYNDONVILLE*   FAIR      12   0  58 E6        29.83F WCI   3          
RUTLAND*       FAIR      14   0  52 SE12      29.86F WCI   0          
SPRINGFIELD    FAIR      12   1  61 W5        29.90F WCI   4          
HIGHGATE*      CLOUDY    20   5  52 S12G21    29.81F WCI   8          
NEWPORT*       FAIR      13   1  57 S10G16    29.81F WCI   0          
BENNINGTON     FAIR      18   0  45 S8        29.86F WCI   8          
SUTTON*          N/A      7 N/A N/A MISG        N/A                   

_____LAKE CHAMPLAIN_____

  
CITY           SKY/WX    TMP DP  RH WIND       PRES   REMARKS

$$

NYZ007-026>031-035-052-083-130200-
_____NORTHERN NEW YORK_____

  
CITY           SKY/WX    TMP DP  RH WIND       PRES   REMARKS
PLATTSBURGH    CLOUDY    19   5  54 S8        29.82F WCI   9          
SARANAC LAKE   CLOUDY    14   4  64 SW14      29.68F WCI  -1          
MASSENA        LGT SNOW  21  15  78 S15G25    29.77F WCI   8          
OGDENSBURG*    LGT SNOW  19  16  86 N9        29.78S WCI   9          
WATERTOWN      SNOW      20  17  88 SW13      29.79F VSB 1/2 WCI   7  
ALBANY         PTCLDY    19   3  49 S8        29.91F WCI   9          
GLENS FALLS    CLEAR     18   1  47 S7        29.89F WCI   9          

$$
NHZ002-005-011-130200-
_____NEW HAMPSHIRE_____

  
CITY           SKY/WX    TMP DP  RH WIND       PRES   REMARKS
LEBANON        PTCLDY    11   1  64 S8        29.88F WCI  -1          
MT WASHINGTON  FOG       -9  -9 100 SW15G25     N/A  VSB 1/8 WCI -31  
PLYMOUTH       FAIR      10   5  80 CALM      29.92F                  
WHITEFIELD     PTCLDY     4  -2  76 CALM      29.85F                  

$$

_____REGIONAL QUEBEC LOCATIONS_____

  
CITY           SKY/WX    TMP DP  RH WIND       PRES   REMARKS
MONTREAL       LGT SNOW  19  16  86 S22       29.77F WCI   3          
QUEBEC CITY    LGT SNOW   7   0  72 NE10      29.88F WCI  -8          
SHERBROOKE     CLEAR      9   1  72 E8        29.80F WCI  -4          

_____REGIONAL ONTARIO LOCATIONS_____

  
CITY           SKY/WX    TMP DP  RH WIND       PRES   REMARKS
OTTAWA         LGT SNOW  14  10  85 NW14G20   29.80R WCI  -1          

______KEY______
VSB  - VISIBILITY IN MILES
WCI  - WIND CHILL INDEX
HX   - HEAT INDEX
$$
NNNN
  

Return to Home page


Western Regional Climate Center, wrcc@dri.edu